Regional Weather Roundup
Issued by NWS

Home | Current Version | Previous Version | Text Only | Print | Product List | Glossary On
Versions: 1 2 3 4 5 6 7 8 9 10 11 12 13 14 15 16 17 18 19 20 21 22 23 24 25 26 27 28 29 30 31 32 33 34 35 36 37 38 39 40 41 42 43 44 45 46 47 48 49 50
000
ASUS44 KLUB 250110
RWRTX
WEST TEXAS WEATHER ROUNDUP
NATIONAL WEATHER SERVICE LUBBOCK TX
800 PM CDT SUN MAY 24 2015

NOTE: "FAIR" INDICATES FEW OR NO CLOUDS BELOW 12,000 FEET WITH NO
SIGNIFICANT WEATHER AND/OR OBSTRUCTIONS TO VISIBILITY.

TXZ004-006>008-010-012-014-016-OKZ002-250200-
TEXAS PANHANDLE/OKLAHOMA PANHANDLE

CITY           SKY/WX    TMP DP  RH WIND       PRES   REMARKS
AMARILLO       CLEAR     73  48  41 S9        29.78S
BORGER         CLEAR     78  44  29 S9        29.74R
CANADIAN       CLEAR     74  62  67 SE9       29.75S
DALHART        CLEAR     72  40  31 SW14      29.75S
DUMAS          PTCLDY    71  51  48 S12       29.76R
GUYMON         PTCLDY    73  48  41 S12       29.70F
HEREFORD       CLEAR     74  47  37 MISG      29.80S
PAMPA          CLEAR     72  57  59 SE12      29.78R
PERRYTON       PTCLDY    69  60  74 SE14      29.74F
$$

TXZ026-029-035-045-048-250200-
SOUTHERN PANHANDLE/SOUTH PLAINS/ROLLING PLAINS

CITY           SKY/WX    TMP DP  RH WIND       PRES   REMARKS
CHILDRESS      CLEAR     78  58  49 S13       29.74S
SEMINOLE       CLEAR     78  29  16 SW12G17   29.83S
LUBBOCK        PTCLDY    76  41  28 SW7       29.80S
PLAINVIEW      CLEAR     75  40  28 SW12      29.79R
SNYDER         CLEAR     79  45  30 S8        29.82R
$$

TXZ052-054-060>062-072-078-127-140-154-169-250200-
PERMIAN BASIN/CONCHO VALLEY/BIG COUNTRY/EDWARDS PLATEAU

CITY           SKY/WX    TMP DP  RH WIND       PRES   REMARKS
ABILENE        PTCLDY    78  64  61 SE13      29.81R
BIG SPRING     CLEAR     83  31  15 S10       29.84S
BRADY          CLEAR     79  66  65 SE5       29.84S
BROWNWOOD      CLEAR     75  66  73 SE7       29.84S
JUNCTION       CLEAR     82  62  50 S5        29.83S
MIDLAND        CLEAR     81  36  19 SW9       29.82S
ODESSA           N/A    N/A N/A N/A MISG      29.83S
SAN ANGELO     CLEAR     81  58  45 S8        29.81R
SONORA         CLEAR     82  46  28 S6        29.88R
SWEETWATER     CLEAR     78  61  55 SE9       29.85R
WINK           CLEAR     84  24  11 S8        29.78S
$$

TXZ055-058-074-075-080-082-250200-
FAR WEST/SOUTHWEST MOUNTAINS/TRANS PECOS

CITY           SKY/WX    TMP DP  RH WIND       PRES   REMARKS
ALPINE         CLEAR     78  20  11 S6        29.95F
EL PASO        MOSUNNY   80  14   8 W12       29.82S
FORT STOCKTON  CLEAR     82  27  13 S12G22    29.82R
GUADALUPE PASS SUNNY     71  16  12 W28G35    29.92S
MARFA          CLEAR     73  23  15 S9        29.94S
PECOS          CLEAR     82  36  19 CALM      29.78S
PRESIDIO       FAIR      89  19   7 SE6       29.76F
$$

TXZ014-016-019-021>030-083-250200
TEXAS TECH WEST TEXAS MESONET/TEXAS PANHANDLE/NORTHERN SOUTH PLAINS

CITY           SKY/WX    TMP DP  RH WIND       PRES   REMARKS
ABERNATHY 5ENE   N/A     74  42  31 S8        29.82R
AMARILLO 9NNE    N/A     74  47  37 S6        29.76R
AMARILLO 7SSE    N/A     73  47  40 S8        29.79S
AMHERST 1NE      N/A     73  40  30 S6        29.81R
BOOTLEG 11WNW    N/A     68  46  45 S8        29.83S
CANADIAN 6E      N/A     72  60  67 SE10      29.75S
CAPROCK CYN SP   N/A     75  51  42 S8        29.76R
CHILDRESS 2NNE   N/A     78  57  47 S12       29.74R
CLARENDON 2WSW   N/A     76  54  45 S9        29.76R
CLAUDE 12SW      N/A     76  46  35 S5        29.79R
DIMMITT 2NE      N/A     69  45  42 S9        29.81R
FLOYDADA 2NNE    N/A     75  37  25 SW13      29.79R
FRIONA 2NE       N/A     73  43  34 S10       29.81R
GOODLETT 3W      N/A     79  59  50 SE10      29.73S
HART 3N          N/A     71  44  37 SW8       29.81R
HEREFORD 2NW     N/A     73  43  33 SW8       29.80R
MCLEAN 1E        N/A     73  58  59 SE8       29.76R
MEMPHIS 1NE      N/A     78  59  51 SE6       29.73S
MULESHOE 2SSW    N/A     69  43  38 S6        29.80S
OLTON 6S         N/A     73  39  29 S10       29.80R
PALO DURO SP     N/A     75  44  32 SW8       29.80R
PAMPA 2E         N/A     72  59  63 SE12      29.77R
PLAINVIEW 1S     N/A     75  40  28 SW12      29.79R
SILVERTON 7ESE   N/A     76  47  36 SW7       29.78R
TULIA 2ENE       N/A     75  43  32 SW8       29.79S
UMBARGER 3NNE    N/A     69  51  52 S8        29.80R
$$

TXZ033>036-039>041-045>048-250200
TEXAS TECH WEST TEXAS MESONET/SOUTH PLAINS

CITY           SKY/WX    TMP DP  RH WIND       PRES   REMARKS
AIKEN 3WSW       N/A     73  44  35 SW13      29.81R
ANDREWS 2NE      N/A     80  26  13 SW8       29.83R
ANTON 6SSW       N/A     75  36  24 S10       29.80S
BROWNFIELD 2S    N/A     76  29  17 SW12      29.81S
DENVR CTY 7WNW   N/A     76  27  16 S12       29.82S
GAIL 2ESE        N/A     75  49  39 S6        29.80R
LAMESA 2SE       N/A     71  49  45 S9        29.83R
LEVELLAND 4S     N/A     75  37  24 S9        29.81S
LUBBOCK 3WNW     N/A     78  32  19 SW8       29.81R
MORTON 1ENE      N/A     76  31  19 S12       29.81S
ODONNELL 1N      N/A     76  37  24 S12       29.82R
PLAINS 3N        N/A     74  36  25 S10       29.82S
RALLS 1SE        N/A    N/A N/A N/A S7        29.81R
REESE CENTER     N/A     75  34  22 SW9       29.81S
SEAGRAVES 1SW    N/A     78  30  17 S12       29.81S
SEMINOLE 2NNE    N/A     78  25  14 S13       29.82R
SLATON 2NE       N/A     72  41  32 S9        29.80S
SNYDER 3E        N/A     78  44  30 S8        29.81R
SUNDOWN 8SW      N/A     74  36  25 S9        29.82R
TAHOKA 3NNE      N/A     74  41  29 S8        29.81S
WOLFFORTH 6SSW   N/A     78  35  21 SW12      29.81S
$$

TXZ031-032-036>038-042>044-250200-
TEXAS TECH WEST TEXAS MESONET/ROLLING PLAINS

CITY           SKY/WX    TMP DP  RH WIND       PRES   REMARKS
ASPERMONT 3NE    N/A     79  62  57 SE6       29.77S
FLUVANNA 3WNW    N/A     77  45  31 S7        29.81S
GRAHAM 5SSW      N/A     77  34  21 S12       29.80S
GUTHRIE 10WSW    N/A     80  47  32 S10       29.76S
HASKELL 1NW      N/A     78  61  55 SE10      29.77S
JAYTON 1SSE      N/A     78  62  57 SE6       29.77S
KNOX CITY 3NW    N/A     80  58  47 S10       29.77R
LK A HENRY 1NW   N/A     77  47  34 S6        29.79R
NORTHFIELD 1S    N/A     78  52  39 S10       29.73S
ODELL 4ENE       N/A     77  63  61 SE14      29.76S
PADUCAH 10SW     N/A     76  49  37 S10       29.75S
POST 1NE         N/A     77  39  25 S8        29.79R
RRING SPRGS 3N   N/A     75  46  35 S10       29.77S
SEYMOUR 3NW      N/A     79  62  57 SE14      29.77R
SPUR 1W          N/A     75  46  35 S7        29.78R
WEINERT 2NNE     N/A     78  65  63 S14       29.77S
WHITE RVR 6NE    N/A     75  45  34 S9        29.79R
$$

TXZ052-054-060>062-072-078-127-140-154-169-250200-
TEXAS TECH WEST TEXAS MESONET/PERMIAN BASIN/
CONCHO VALLEY/BIG COUNTRY/EDWARDS PLATEAU

CITY           SKY/WX    TMP DP  RH WIND       PRES   REMARKS
COYANOSA 2N      N/A     86  35  16 S1        29.80S
JUNCTION 1SSW    N/A     81  62  53 S5        29.84S
MERTZON 3NNE     N/A     79  59  51 S6        29.84R
SAN ANGELO 7NW   N/A     81  57  44 S7        29.82R
STRLNG CT 4WSW   N/A     79  48  34 SE5       29.83S
ST LAWRNCE 5SW   N/A     80  44  27 S6        29.83S
SWEETWATR 11SW   N/A     78  61  57 S10       29.85R
WALL 1E          N/A     80  58  46 S6        29.82S
$$

TXZ055-058-074-075-080-082-250200-
TEXAS TECH WEST TEXAS MESONET/FAR WEST/SOUTHWEST MOUNTAINS/TRANS PECOS

CITY           SKY/WX    TMP DP  RH WIND       PRES   REMARKS
PRSMN GAP BBNP   N/A     85  31  14 SE8       29.81F
$$


USA.gov is the U.S. government's official web portal to all federal, state and local government web resources and services.